Location: Goettingen
(51.5300°N, 9.9433°E)
Time: 06:04:52
(UTC+02:00)

ISS - Pass Details

Date: 14 May 2021
Orbit: 417 x 422 km, 51.6° (Epoch: 18 May)

Event Time Altitude Azimuth Distance (km) Brightness Sun altitude
Rises 22:49:19 0° 218° (SW) 2,352 -0.1 -12.6°
Reaches altitude 10° 22:51:37 10° 205° (SSW) 1,493 -1.3 -12.8°
Maximum altitude 22:54:26 26° 147° (SSE) 875 -2.8 -13.1°
Enters shadow 22:55:32 21° 116° (ESE) 994 -2.4 -13.2°
Exits shadow 22:57:51 - 85° (E) 1,700 -1.0 -13.4°
Sets 22:59:36 0° 77° (ENE) 2,370 -0.1 -13.5°
